Location: Unspecified
(0.0000°N, 0.0000°E)
Time: 08:22:10
(UTC+02:00)

DELTA 2 R/B (1) - Visible Passes

Search period start: 27 August 2016 00:00
Search period end: 06 September 2016 00:00
Orbit: 790 x 803 km, 39.6° (Epoch: 26 August)

Date Brightness Start Highest point End Pass type
(mag) Time Alt. Az. Time Alt. Az. Time Alt. Az.
03 Sep 6.0 21:56:27 10° N 21:56:43 11° N 21:56:43 11° N visible
04 Sep 5.6 21:26:08 10° N 21:27:50 13° NNE 21:27:50 13° NNE visible
05 Sep 5.5 20:56:00 10° NNE 20:57:55 12° NE 20:59:03 11° NE visible
05 Sep 6.0 22:38:53 10° NW 22:39:52 15° NW 22:39:52 15° NW visible
